• Processing (Info)

  • MPEC 2022-X33 : 2022 WL11

    The following Minor Planet Electronic Circular may be linked-to from your own Web pages, but must not otherwise be redistributed electronically.

    A form allowing access to any MPEC is at the bottom of this page.


    Read MPEC 2022-X32 Read MPEC 2022-X34


    M.P.E.C. 2022-X33                              Issued 2022 December 2, 02:10 UT
    
         The Minor Planet Electronic Circulars contain information on unusual
             minor planets, routine data on comets and natural satellites,
             and occasional editorial announcements.  They are published
        on behalf of Division F of the International Astronomical Union by the
              Minor Planet Center, Smithsonian Astrophysical Observatory,
                              Cambridge, MA 02138, U.S.A.
    			  
                 Prepared using the Tamkin Foundation Computer Network
    
                                  MPC@CFA.HARVARD.EDU
                URL https://www.minorplanetcenter.net/    ISSN 1523-6714
    
                                    2022 WL11                                
    
    
    Observations:
         K22W11L*1C2022 11 30.17161300 53 30.059+13 16 00.62         18.97GVEX033G96
         K22W11L 1C2022 11 30.17726100 53 28.525+13 18 50.90         18.93GVEX033G96
         K22W11L 1C2022 11 30.18852300 53 25.516+13 24 33.34         19.48GVEX033G96
         K22W11L KC2022 11 30.22856 00 53 13.40 +13 44 21.9          19.9 VqEX033H36
         K22W11L KC2022 11 30.23363 00 53 12.13 +13 46 53.6          19.3 VqEX033H36
         K22W11L KC2022 11 30.23873 00 53 10.83 +13 49 25.7          20.0 VqEX033H36
         K22W11L mC2022 11 30.25367900 53 08.264+13 57 12.71         20.91GVEX033I52
         K22W11L mC2022 11 30.25384800 53 08.236+13 57 17.50         19.66GVEX033I52
         K22W11L mC2022 11 30.25401800 53 08.189+13 57 22.43         19.74GVEX033I52
         K22W11L mC2022 11 30.25418800 53 08.117+13 57 27.65         19.90GVEX033I52
         K22W11L KC2022 11 30.98193700 50 48.14 +19 40 57.1          20.1 VuEX033H21
         K22W11L KC2022 11 30.98387600 50 47.70 +19 41 49.0          20.2 VuEX033H21
         K22W11L KC2022 11 30.98580600 50 47.24 +19 42 40.9          20.3 VuEX033H21
         K22W11L KC2022 11 30.98889100 50 46.50 +19 44 03.7          19.7 VuEX033H21
         K22W11L KC2022 12 01.00173 00 50 44.36 +19 49 46.0          20.4 VqEX033734
         K22W11L KC2022 12 01.00395 00 50 43.83 +19 50 45.0          20.1 VqEX033734
         K22W11L KC2022 12 01.00840 00 50 42.81 +19 52 43.7          20.3 VqEX033734
         K22W11L KC2022 12 01.01054 00 50 42.28 +19 53 41.2          20.4 VqEX033734
         K22W11L KC2022 12 01.02098 00 50 39.71 +19 58 20.0          19.2 VqEX033H36
         K22W11L KC2022 12 01.02359 00 50 39.07 +19 59 29.2          19.3 VqEX033H36
         K22W11L KC2022 12 01.02619 00 50 38.45 +20 00 38.3          19.3 VqEX033H36
         K22W11L KC2022 12 02.03988 00 47 28.75 +26 50 34.5          20.3 VqEX033734
         K22W11L KC2022 12 02.04235 00 47 28.21 +26 51 28.4          20.0 VqEX033734
         K22W11L KC2022 12 02.04728 00 47 27.18 +26 53 17.9          20.8 VqEX033734
         K22W11L KC2022 12 02.05221 00 47 26.09 +26 55 05.2          19.3 VqEX033734
    
    Observer details:
    734 Farpoint Observatory, Eskridge.  Observers D. Cromer, G. Hug, D. Goodin,
        R. Valentine.  Measurer D. Cromer.  0.70-m f/3.0 reflector + CCD.
    G96 Mt. Lemmon Survey.  Observer R. A. Kowalski.  Measurers E. J. Christensen,
        D. Fay, J. B. Fazekas, D. C. Fuls, A. R. Gibbs, A. D. Grauer, H. Groeller,
        J. K. Hogan, R. A. Kowalski, S. M. Larson, G. J. Leonard, D. Rankin, R. L.
        Seaman, A. Serrano, F. C. Shelly, K. W. Wierzchos.  1.5-m reflector + 10K
        CCD.
    H21 Astronomical Research Observatory, Westfield.  Observer R. Holmes.
        Measurers T. Linder, R. Holmes, L. Horn.  0.76-m f/3.0 astrograph + CCD.
    H36 Sandlot Observatory, Scranton.  Observer G. Hug.  0.56-m f/4.8 .56 meter
        reflector + CCD.
    I52 Steward Observatory, Mt. Lemmon Station.  Observer A. Serrano.  Measurers
        E. J. Christensen, D. Fay, J. B. Fazekas, D. C. Fuls, A. R. Gibbs, A. D.
        Grauer, H. Groeller, J. K. Hogan, R. A. Kowalski, S. M. Larson, G. J.
        Leonard, D. Rankin, R. L. Seaman, A. Serrano, F. C. Shelly, K. W.
        Wierzchos.  1.0-m prime focus + CCD.
    
    Orbital elements:
    2022 WL11                                                Earth MOID = 0.0321 AU
    Epoch 2023 Feb. 25.0 TT = JDT 2460000.5                 Veres                   
    M  74.71340              (2000.0)            P               Q                  
    n   0.60113747     Peri.  317.87091     +0.85656559     -0.30176091             
    a   1.3904440      Node    64.35226     +0.50137521     +0.67865942             
    e   0.3098521      Incl.   27.66910     -0.12214041     +0.66959820             
    P   1.64           H   24.12          G   0.15           U   8                  
    Residuals in seconds of arc
    221130 G96  0.0   0.0     221130 I52  0.4-  0.2-    221201 H36  0.7-  0.3+
    221130 G96 (0.1-  1.1-)   221130 H21  0.1-  0.2-    221201 H36  0.9-  0.0
    221130 G96  0.3+  0.2+    221130 H21  0.2+  0.3-    221201 H36  0.8-  0.0
    221130 H36  0.0   1.0+    221130 H21  0.1+  0.2-    221202 734  0.2-  0.6+
    221130 H36  0.1+  0.7+    221130 H21  0.0   0.0     221202 734  0.2-  0.4-
    221130 H36  0.2-  0.1+    221201 734  0.0   0.4+    221202 734  0.5+  0.3-
    221130 I52  0.2-  0.1+    221201 734  0.0   0.0     221202 734 (0.5+  2.3-)
    221130 I52  0.1+  0.2-    221201 734  0.4+  0.1-
    221130 I52  0.0   0.3-    221201 734  0.1+  0.2+
    
    Ephemeris:
    2022 WL11                a,e,i = 1.39, 0.31, 28                  q = 0.9596
    Date    TT    R. A. (2000) Decl.     Delta      r    Elong.  Phase     V
    2022 11 02    08 04 52.2 -83 16 27   0.2425  0.9638    76.2    89.7    24.1
    ...
    2022 11 17    02 36 14.2 -74 30 15   0.1130  0.9880    86.3    87.2    22.4
    ...
    2022 11 25    01 18 16.3 -37 28 48   0.05751 1.0088   110.4    66.5    20.3
    ...
    2022 12 01    00 50 40.0 +19 49 31   0.06266 1.0274   129.7    47.6    20.0
    2022 12 02    00 47 33.0 +26 36 01   0.06848 1.0307   129.2    47.8    20.2
    2022 12 03    00 44 45.9 +32 14 54   0.07511 1.0341   128.3    48.5    20.4
    ...
    2022 12 09    00 33 46.7 +51 17 12   0.1238  1.0556   121.8    52.4    21.6
    ...
    2022 12 17    00 30 40.8 +60 46 27   0.1969  1.0871   116.7    54.0    22.7
    ...
    2023 01 01    00 50 24.7 +67 17 39   0.3374  1.1523   111.9    52.4    24.0
    
    M. P. C. Staff               (C) Copyright 2022 MPC           M.P.E.C. 2022-X33
    


    Read MPEC 2022-X32 Read MPEC 2022-X34


    MPEC number:

    Enter an MPEC number in one of the following forms:

    • 1997-B01 (the full form)
    • J97B01 (the packed version of the full form)
    • B01 (the abbreviated form)